Kodiak, AK

5:03 PM AKDT on July 22, 2017 (GMT -0800)
Kodiak

Weather History for PADQ - January, 2014

Change the Weather History Date:

Sunday, January 19, 2014

  Actual Average Record
Temperature  
Mean Temperature 36 °F 30 °F  
Max Temperature 44 °F 35 °F 49 °F (1937)
Min Temperature 27 °F 26 °F 4 °F (1974)
Degree Days  
Heating Degree Days 29 35  
Month to date heating degree days 569 653  
Since 1 July heating degree days 4016 4496  
Cooling Degree Days 0 0  
Month to date cooling degree days 0 0  
Year to date cooling degree days 0 0  
Moisture  
Dew Point 38 °F    
Average Humidity 0    
Maximum Humidity 0    
Minimum Humidity 0    
Precipitation  
Precipitation 0.81 in 0.28 in 1.59 in (2013)
Month to date precipitation 9.48 5.26  
Year to date precipitation 9.48 5.26  
Snow  
Snow 0.00 in 0.40 in 6.60 in (2011)
Month to date snowfall 5.1 7.4  
Since 1 July snowfall 24.0 28.7  
Snow Depth 0.00 in    
Sea Level Pressure  
Sea Level Pressure 29.49 in    
Wind  
Wind Speed 22 mph (East)    
Max Wind Speed 38 mph    
Max Gust Speed 47 mph    
Visibility 5 miles    
Events Rain    
T = Trace of Precipitation, MM = Missing Value Source: NWS Daily Summary

Daily Weather History Graph

Daily Weather History Graph

Search for Another Location

Airport or City:

Trip Planner

Search our weather history database for the weather conditions in past years. The results will help you decide how hot, cold, wet, or windy it might be!

Date:

Astronomy

Jan. 19, 2014 Rise Set
Actual Time 9:35 AM AKST 5:06 PM AKST
Civil Twilight 8:48 AM AKST 5:53 PM AKST
Nautical Twilight 7:59 AM AKST 6:42 PM AKST
Astronomical Twilight 7:13 AM AKST 7:29 PM AKST
Moon 9:54 PM AKST (1/19) 10:16 AM AKST (1/19)
Length of Visible Light 9h 04m
Length of Day
7h 30m
Waning Gibbous, 88% of the Moon is Illuminated
Jan 19
Waning Gibbous
Jan 23
Last Quarter
Jan 30
New
Feb 6
First Quarter
Feb 14
Full

Hourly Weather History & Observations

Time (AKST) Temp. Windchill Dew Point Humidity Pressure Visibility Wind Dir Wind Speed Gust Speed Precip Events Conditions
12:53 AM 28.9 °F 25.2 °F 24.1 °F 82% 29.73 in 10.0 mi West 3.5 mph - N/A   Mostly Cloudy
1:53 AM 28.9 °F 25.2 °F 26.1 °F 89% 29.71 in 10.0 mi West 3.5 mph - N/A   Mostly Cloudy
3:53 AM 37.9 °F 28.5 °F 30.9 °F 76% 29.68 in 10.0 mi ENE 17.3 mph - N/A   Mostly Cloudy
4:04 AM 39.2 °F 29.6 °F 30.2 °F 70% 29.67 in 10.0 mi ENE 19.6 mph - N/A   Mostly Cloudy
4:31 AM 39.2 °F 29.6 °F 30.2 °F 70% 29.66 in 10.0 mi ENE 19.6 mph 27.6 mph N/A   Overcast
4:53 AM 39.0 °F 28.0 °F 30.9 °F 73% 29.65 in 10.0 mi ENE 25.3 mph 32.2 mph N/A   Overcast
5:37 AM 39.2 °F 28.3 °F 32.0 °F 75% 29.61 in 10.0 mi ENE 25.3 mph 34.5 mph N/A   Overcast
5:53 AM 39.0 °F 28.8 °F 33.1 °F 79% 29.61 in 10.0 mi ENE 21.9 mph 29.9 mph N/A   Overcast
6:53 AM 39.0 °F 27.2 °F 37.0 °F 93% 29.56 in 5.0 mi ENE 29.9 mph 41.4 mph 0.02 in Rain Light Rain
7:51 AM 39.2 °F 27.4 °F 37.4 °F 93% 29.53 in 5.0 mi ENE 29.9 mph 39.1 mph 0.05 in Rain Rain
7:53 AM 39.0 °F 26.8 °F 37.9 °F 96% 29.54 in 5.0 mi ENE 32.2 mph 39.1 mph 0.05 in Rain Rain
8:53 AM 39.0 °F 26.8 °F 37.9 °F 96% 29.50 in 3.0 mi NE 32.2 mph 41.4 mph 0.07 in Rain Rain
9:20 AM 39.2 °F 27.4 °F 37.4 °F 93% 29.48 in 3.0 mi ENE 29.9 mph 43.7 mph 0.04 in Rain Rain
9:53 AM 39.0 °F 26.1 °F 39.0 °F 100% 29.47 in 3.0 mi ENE 36.8 mph 43.7 mph 0.10 in Rain Rain
10:50 AM 39.2 °F 28.3 °F 39.2 °F 100% 29.44 in 3.0 mi ENE 25.3 mph 43.7 mph 0.05 in Rain Light Rain
10:53 AM 39.9 °F 28.8 °F 39.9 °F 100% 29.45 in 3.0 mi ENE 27.6 mph 43.7 mph 0.05 in Rain Light Rain
10:55 AM 39.2 °F 28.5 °F 39.2 °F 100% 29.44 in 2.0 mi ENE 24.2 mph 39.1 mph 0.00 in Rain Light Rain
11:02 AM 39.2 °F 28.3 °F 39.2 °F 100% 29.44 in 1.8 mi ENE 25.3 mph 35.7 mph 0.01 in Rain Light Rain
11:45 AM 41.0 °F 30.5 °F 41.0 °F 100% 29.43 in 2.0 mi ENE 26.5 mph 39.1 mph 0.04 in Rain Light Rain
11:53 AM 41.0 °F 30.5 °F 41.0 °F 100% 29.43 in 2.0 mi East 26.5 mph 38.0 mph 0.04 in Rain Light Rain
12:53 PM 42.1 °F 32.3 °F 42.1 °F 100% 29.42 in 2.0 mi East 24.2 mph - 0.05 in Rain Light Rain
1:24 PM 42.8 °F 34.3 °F 42.8 °F 100% 29.41 in 1.8 mi East 19.6 mph - 0.00 in   Overcast
1:49 PM 42.8 °F 34.3 °F 42.8 °F 100% 29.41 in 1.8 mi East 19.6 mph - 0.01 in   Overcast
1:53 PM 42.1 °F 33.6 °F 42.1 °F 100% 29.41 in 1.8 mi East 18.4 mph 27.6 mph 0.01 in   Overcast
2:53 PM 42.1 °F 32.3 °F 42.1 °F 100% 29.39 in 1.2 mi East 24.2 mph - 0.02 in Rain Light Rain
3:51 PM 42.8 °F 33.5 °F 42.8 °F 100% 29.40 in 1.2 mi East 23.0 mph 31.1 mph 0.03 in Rain Light Rain
3:53 PM 42.1 °F 32.3 °F 42.1 °F 100% 29.40 in 1.2 mi East 24.2 mph 31.1 mph 0.03 in Rain Light Rain
4:53 PM 42.1 °F 33.3 °F 41.0 °F 96% 29.41 in 2.5 mi East 19.6 mph - 0.02 in   Overcast
5:19 PM 42.8 °F 34.8 °F 41.0 °F 93% 29.42 in 3.0 mi East 17.3 mph - 0.01 in   Overcast
5:53 PM 42.1 °F 34.2 °F 39.9 °F 92% 29.43 in 5.0 mi ESE 16.1 mph - 0.01 in   Overcast
6:53 PM 42.1 °F 34.2 °F 39.9 °F 92% 29.46 in 6.0 mi ESE 16.1 mph - N/A   Overcast
7:46 PM 42.8 °F 35.4 °F 39.2 °F 87% 29.46 in 6.0 mi ESE 15.0 mph - N/A   Overcast
7:53 PM 42.1 °F 34.2 °F 39.9 °F 92% 29.47 in 7.0 mi ESE 16.1 mph - N/A   Overcast
8:53 PM 42.1 °F 33.9 °F 39.9 °F 92% 29.46 in 7.0 mi ESE 17.3 mph - 0.01 in Rain Rain
9:42 PM 42.8 °F 34.8 °F 41.0 °F 93% 29.45 in 3.0 mi East 17.3 mph - 0.09 in Rain Heavy Rain
9:53 PM 42.1 °F 33.9 °F 41.0 °F 96% 29.45 in 3.0 mi ENE 17.3 mph - 0.13 in Rain Rain
10:04 PM 42.8 °F 33.8 °F 41.0 °F 93% 29.45 in 3.0 mi East 21.9 mph - 0.02 in Rain Rain
10:34 PM 42.8 °F 33.1 °F 42.8 °F 100% 29.44 in 2.0 mi East 25.3 mph 32.2 mph 0.06 in Rain Rain
10:48 PM 42.8 °F 33.5 °F 42.8 °F 100% 29.44 in 3.0 mi ESE 23.0 mph - 0.08 in Rain Rain
10:53 PM 42.1 °F 33.1 °F 42.1 °F 100% 29.44 in 3.0 mi East 20.7 mph - 0.11 in Rain Rain
11:25 PM 42.8 °F 33.5 °F 41.0 °F 93% 29.44 in 3.0 mi ESE 23.0 mph - 0.05 in Rain Rain
11:53 PM 44.1 °F 34.0 °F 42.1 °F 93% 29.44 in 3.0 mi ESE 29.9 mph 38.0 mph 0.09 in Rain Light Rain